{"data":{"norad_id":67421,"intl_designator":"2026-005T","name":"STARLINK-36431","alt_names":[],"object_type":"PAYLOAD","status":"ACTIVE","operator":null,"country":"US","launch_date":"2026-01-12","launch_site_code":"AFETR","launch_vehicle":null,"mission":null,"orbit_class":"UNKNOWN","rcs_meters":null,"size_class":null,"mass_kg":null,"dimensions":null,"purposes":["comms"],"wikipedia_slug":null,"has_3d_model":false,"image_url":null,"decayed_at":null,"tle_current":{"epoch":"2026-05-24T09:54:32.086368Z","epoch_age_seconds":129032,"freshness":"FRESH","line1":"1 67421U 26005T   26144.41287137  .00013825  00000+0  51098-3 0  9997","line2":"2 67421  42.9998 170.6619 0001602 277.4995  82.5675 15.27578547 20270","mean_motion":15.27578547,"eccentricity":0.0001602,"inclination_deg":42.9998,"raan_deg":170.6619,"arg_perigee_deg":277.4995,"mean_anomaly_deg":82.5675,"bstar":0.00051098,"rev_number":2027,"period_min":94.266838378164,"perigee_km":481.95428413823,"apogee_km":484.1526095574,"semimajor_km":6861.1904468478,"source":"CELESTRAK","updated_at":"2026-05-25T13:38:21.556090Z"}}}